FW0960 Weather Reports


Display with metric or nautical units.
time (UTC)temp
F
wind
direction
speed
MPH
gust
MPH
rain 1hr
in
rain 24hr
in
rain mn
in
humidity
%
barometer
mb
20260510153229 74 203 0.0 2.0 0.00 0.00 0.00 73 1014.6
20260510152724 73 202 0.0 2.0 0.00 0.00 0.00 75 1014.7
20260510152233 73 196 0.0 3.0 0.00 0.00 0.00 73 1014.7
20260510151722 73 196 0.0 3.0 0.00 0.00 0.00 73 1014.7
20260510150719 73 196 0.0 2.0 0.00 0.00 0.00 74 1014.7
20260510150217 73 196 0.0 2.0 0.00 0.00 0.00 72 1014.7
20260510145217 73 196 0.0 1.0 0.00 0.00 0.00 74 1014.7
20260510143709 73 196 0.0 1.0 0.00 0.00 0.00 74 1014.6
20260510143208 73 196 0.0 2.0 0.00 0.00 0.00 71 1014.6
20260510141708 72 196 0.0 2.0 0.00 0.00 0.00 67 1014.4
20260510141210 72 196 0.0 1.0 0.00 0.00 0.00 66 1014.3
20260510140709 71 197 0.0 4.0 0.00 0.00 0.00 67 1014.4
20260510140213 71 197 0.0 4.0 0.00 0.00 0.00 67 1014.4
20260510135705 71 194 0.0 3.0 0.00 0.00 0.00 68 1014.5
20260510135205 71 194 1.0 2.0 0.00 0.00 0.00 70 1014.5
20260510134703 71 198 1.0 1.0 0.00 0.00 0.00 72 1014.5
20260510134204 70 202 0.0 1.0 0.00 0.00 0.00 72 1014.4
20260510133702 70 201 1.0 2.0 0.00 0.00 0.00 73 1014.4
20260510132204 68 188 1.0 2.0 0.00 0.00 0.00 79 1014.3
20260510131708 68 187 1.0 2.0 0.00 0.00 0.00 81 1014.3
20260510131204 67 189 1.0 2.0 0.00 0.00 0.00 82 1014.4
20260510130709 67 194 1.0 4.0 0.00 0.00 0.00 84 1014.4
20260510130204 66 197 1.0 4.0 0.00 0.00 0.00 85 1014.4
20260510125702 65 191 1.0 2.0 0.00 0.00 0.00 88 1014.2
20260510125202 64 166 0.0 1.0 0.00 0.00 0.00 90 1014.1
20260510124702 64 133 0.0 2.0 0.00 0.00 0.00 92 1014.0
20260510123701 62 74 0.0 0.0 0.00 0.00 0.00 96 1013.8
20260510123206 62 74 0.0 1.0 0.00 0.00 0.00 96 1013.6
20260510122201 61 74 0.0 1.0 0.00 0.00 0.00 97 1013.6
20260510121708 61 74 0.0 2.0 0.00 0.00 0.00 98 1013.5
20260510121205 60 74 0.0 2.0 0.00 0.00 0.00 98 1013.5
20260510120707 60 74 0.0 1.0 0.00 0.00 0.00 98 1013.6
20260510115202 59 74 0.0 2.0 0.00 0.00 0.00 99 1013.4
20260510114701 59 74 0.0 2.0 0.00 0.00 0.00 99 1013.3
20260510114203 58 74 0.0 0.0 0.00 0.00 0.00 99 1013.3
20260510113204 58 74 0.0 0.0 0.00 0.00 0.00 98 1013.1
20260510112709 57 74 0.0 0.0 0.00 0.00 0.00 99 1013.1
20260510112202 57 74 0.0 0.0 0.00 0.00 0.00 98 1013.1
20260510111704 57 74 0.0 0.0 0.00 0.00 0.00 98 1013.1
20260510110204 56 74 0.0 0.0 0.00 0.00 0.00 98 1012.9
20260510105701 56 74 0.0 0.0 0.00 0.00 0.00 98 1012.8
20260510105205 55 74 0.0 0.0 0.00 0.00 0.00 98 1012.7
20260510104700 55 74 0.0 0.0 0.00 0.00 0.00 98 1012.6
20260510103703 55 74 0.0 0.0 0.00 0.00 0.00 98 1012.5
20260510103211 55 74 0.0 0.0 0.00 0.00 0.00 98 1012.4
20260510102700 55 74 0.0 0.0 0.00 0.00 0.00 98 1012.4
20260510102204 55 74 0.0 0.0 0.00 0.00 0.00 98 1012.5
20260510101703 55 74 0.0 0.0 0.00 0.00 0.00 97 1012.4
20260510100702 55 74 0.0 0.0 0.00 0.00 0.00 97 1012.2
20260510100204 55 74 0.0 0.0 0.00 0.00 0.00 97 1012.3
20260510094705 56 74 0.0 0.0 0.00 0.00 0.00 97 1012.1
20260510094220 56 74 0.0 0.0 0.00 0.00 0.00 97 1012.0
20260510093704 56 74 0.0 0.0 0.00 0.00 0.00 97 1011.9
20260510093204 56 74 0.0 0.0 0.00 0.00 0.00 97 1011.7
20260510091703 56 74 0.0 0.0 0.00 0.00 0.00 97 1011.7
20260510091204 56 74 0.0 0.0 0.00 0.00 0.00 96 1011.8
20260510090704 56 74 0.0 0.0 0.00 0.00 0.00 97 1011.6
20260510090207 56 74 0.0 0.0 0.00 0.00 0.00 97 1011.4
20260510085706 56 74 0.0 0.0 0.00 0.00 0.00 97 1011.4
20260510085207 56 74 0.0 0.0 0.00 0.00 0.00 96 1011.4
20260510084705 56 74 0.0 0.0 0.00 0.00 0.00 96 1011.3
20260510084205 57 74 0.0 0.0 0.00 0.00 0.00 96 1011.3
20260510083705 57 74 0.0 0.0 0.00 0.00 0.00 96 1011.3
20260510083206 57 74 0.0 0.0 0.00 0.00 0.00 96 1011.4
20260510082706 57 74 0.0 0.0 0.00 0.00 0.00 96 1011.3
20260510082203 57 74 0.0 1.0 0.00 0.00 0.00 96 1011.3
20260510080703 58 74 0.0 0.0 0.00 0.00 0.00 95 1011.1
20260510080202 58 74 0.0 0.0 0.00 0.00 0.00 95 1011.2
20260510075705 58 74 0.0 1.0 0.00 0.00 0.00 95 1011.1
20260510074701 59 74 0.0 0.0 0.00 0.00 0.00 94 1011.2
20260510074159 59 74 0.0 0.0 0.00 0.00 0.00 94 1011.2
20260510073653 59 74 0.0 0.0 0.00 0.00 0.00 94 1011.4
20260510073145 60 74 0.0 0.0 0.00 0.00 0.00 94 1011.3
20260510072643 60 74 0.0 1.0 0.00 0.00 0.00 93 1011.2
20260510072141 60 74 0.0 2.0 0.00 0.00 0.00 93 1011.4
20260510071638 61 74 0.0 2.0 0.00 0.00 0.00 94 1011.1
20260510071144 60 65 0.0 2.0 0.00 0.00 0.00 95 1011.1
20260510070638 60 61 1.0 3.0 0.00 0.00 0.00 95 1011.0
20260510070138 60 46 1.0 4.0 0.00 0.00 0.00 96 1011.1
20260510065639 59 40 0.0 4.0 0.00 0.00 0.00 97 1011.1
20260510065138 58 46 0.0 1.0 0.00 0.00 0.00 97 1011.1
20260510064639 58 43 0.0 1.0 0.00 0.00 0.00 97 1011.2
20260510064133 58 43 0.0 1.0 0.00 0.00 0.00 97 1011.2
20260510063633 58 43 0.0 0.0 0.00 0.00 0.00 97 1011.1
20260510063130 57 43 0.0 0.0 0.00 0.00 0.00 96 1011.2
20260510062631 57 43 0.0 0.0 0.00 0.00 0.00 96 1011.2
20260510062131 57 43 0.0 0.0 0.00 0.00 0.00 96 1011.2
20260510061630 57 43 0.0 1.0 0.00 0.00 0.00 96 1011.2
20260510061131 57 43 0.0 3.0 0.00 0.00 0.00 96 1011.4
20260510060629 58 42 0.0 3.0 0.00 0.00 0.00 96 1011.3
20260510060135 58 40 0.0 0.0 0.00 0.00 0.00 96 1011.2
20260510055634 58 40 0.0 0.0 0.00 0.00 0.00 96 1011.4
20260510055133 58 40 0.0 0.0 0.00 0.00 0.00 95 1011.7
20260510054632 58 40 0.0 0.0 0.00 0.00 0.00 95 1011.6
20260510054138 58 40 0.0 0.0 0.00 0.00 0.00 95 1011.7
20260510053633 58 40 0.0 1.0 0.00 0.00 0.00 95 1011.7
20260510053139 58 40 0.0 1.0 0.00 0.00 0.00 95 1011.6
20260510052130 59 39 0.0 0.0 0.00 0.00 0.00 95 1011.6
20260510051632 59 39 0.0 0.0 0.00 0.00 0.00 94 1011.6
20260510051130 59 39 0.0 0.0 0.00 0.00 0.00 94 1011.6
20260510050635 59 39 0.0 0.0 0.00 0.00 0.00 94 1011.6
20260510050137 59 39 0.0 0.0 0.00 0.00 0.00 94 1011.6
20260510045633 59 39 0.0 0.0 0.00 0.00 0.00 94 1011.6
20260510045131 59 39 0.0 1.0 0.00 0.00 0.00 94 1011.6
20260510044633 59 39 0.0 1.0 0.00 0.00 0.00 94 1011.6
20260510044133 60 39 0.0 0.0 0.00 0.00 0.00 94 1011.7
20260510043130 60 39 0.0 0.0 0.00 0.00 0.00 94 1011.6
20260510042630 60 39 0.0 0.0 0.00 0.00 0.00 93 1011.6
20260510042132 60 39 0.0 0.0 0.00 0.00 0.00 93 1011.6
20260510041634 60 39 0.0 0.0 0.00 0.00 0.00 93 1011.6
20260510041132 60 39 0.0 0.0 0.00 0.00 0.00 93 1011.5
20260510040628 60 39 0.0 0.0 0.00 0.00 0.00 93 1011.7
20260510040131 60 39 0.0 0.0 0.00 0.00 0.00 93 1011.6
20260510035626 60 39 0.0 0.0 0.00 0.00 0.00 93 1011.6
20260510035126 60 39 0.0 0.0 0.00 0.00 0.00 93 1011.6
20260510034628 60 39 0.0 0.0 0.00 0.00 0.00 93 1011.6
20260510034123 60 39 0.0 0.0 0.00 0.00 0.00 93 1011.5
20260510033127 60 39 0.0 0.0 0.00 0.00 0.00 93 1011.4
20260510032621 60 39 0.0 0.0 0.00 0.00 0.00 93 1011.2
20260510031619 61 39 0.0 0.0 0.00 0.00 0.00 92 1011.4
20260510031124 61 39 0.0 0.0 0.00 0.00 0.00 92 1011.3
20260510030142 61 39 0.0 0.0 0.00 0.00 0.00 92 1011.2
20260510024611 61 39 0.0 0.0 0.00 0.00 0.00 92 1011.2
20260510024112 62 39 0.0 0.0 0.00 0.00 0.00 92 1011.1
20260510023108 62 39 0.0 0.0 0.00 0.00 0.00 93 1011.0
20260510022602 62 39 0.0 0.0 0.00 0.00 0.00 93 1011.1
20260510022110 62 39 0.0 0.0 0.00 0.00 0.00 93 1011.1
20260510021603 62 39 0.0 0.0 0.00 0.00 0.00 93 1011.2
20260510020559 62 39 0.0 0.0 0.00 0.00 0.00 92 1011.1
20260510015041 62 39 0.0 0.0 0.00 0.00 0.00 92 1010.9
20260510014535 63 39 0.0 0.0 0.00 0.00 0.00 91 1010.9
20260510013532 63 39 0.0 0.0 0.00 0.00 0.00 91 1010.9
20260510012529 63 39 0.0 0.0 0.00 0.00 0.00 91 1010.9
20260510012034 64 39 0.0 0.0 0.00 0.00 0.00 90 1010.9
20260510011534 64 39 0.0 0.0 0.00 0.00 0.00 90 1010.8
20260510011030 64 39 0.0 0.0 0.00 0.00 0.00 90 1010.8
20260510010531 64 39 0.0 0.0 0.00 0.00 0.00 89 1010.8
20260510010031 64 39 0.0 0.0 0.00 0.00 0.00 89 1010.8
20260510005535 65 39 0.0 0.0 0.00 0.00 0.00 89 1010.8
20260510005029 65 39 0.0 0.0 0.00 0.00 0.00 88 1010.7
20260510004031 66 39 0.0 0.0 0.00 0.00 0.00 87 1010.7
20260510003531 66 39 0.0 0.0 0.00 0.00 0.00 87 1010.6
20260510003032 66 39 0.0 0.0 0.00 0.00 0.00 86 1010.5
20260510002533 66 39 0.0 0.0 0.00 0.00 0.00 86 1010.5
20260510002047 67 39 0.0 0.0 0.00 0.00 0.00 85 1010.5
20260510001532 67 39 0.0 0.0 0.00 0.00 0.00 85 1010.5
20260510000518 67 39 0.0 0.0 0.00 0.00 0.00 84 1010.3
20260510000020 68 39 0.0 0.0 0.00 0.00 0.00 84 1010.4
20260509235520 68 39 0.0 0.0 0.00 0.00 0.00 84 1010.2
20260509234518 69 39 0.0 0.0 0.00 0.00 0.00 83 1010.3
20260509234016 69 39 0.0 0.0 0.00 0.00 0.00 82 1010.3
20260509233505 69 39 0.0 0.0 0.00 0.00 0.00 82 1010.3
20260509233014 69 39 0.0 0.0 0.00 0.00 0.00 82 1010.3
20260509232509 70 39 0.0 0.0 0.00 0.00 0.00 81 1010.1
20260509232005 70 39 0.0 0.0 0.00 0.00 0.00 80 1010.1
20260509231505 70 39 0.0 0.0 0.00 0.00 0.00 80 1010.0
20260509231002 70 39 0.0 0.0 0.00 0.00 0.00 79 1010.0
20260509230501 70 39 0.0 1.0 0.00 0.00 0.00 78 1009.9
20260509230006 71 39 0.0 1.0 0.00 0.00 0.00 78 1009.9
20260509225503 71 39 0.0 0.0 0.00 0.00 0.00 77 1009.8
20260509225003 71 39 0.0 0.0 0.00 0.00 0.00 76 1009.8
20260509224503 71 39 0.0 1.0 0.00 0.00 0.00 76 1009.8
20260509224005 71 39 0.0 1.0 0.00 0.00 0.00 76 1009.6
20260509223505 71 39 0.0 1.0 0.00 0.00 0.00 76 1009.7
20260509223003 71 39 0.0 1.0 0.00 0.00 0.00 76 1009.7
20260509222012 71 40 0.0 1.0 0.00 0.00 0.00 75 1009.8
20260509220939 72 40 0.0 1.0 0.00 0.00 0.00 75 1009.8
20260509220437 72 40 0.0 1.0 0.00 0.00 0.00 76 1009.9
20260509215440 72 43 0.0 5.0 0.00 0.00 0.00 77 1009.6
20260509214440 71 337 0.0 2.0 0.00 0.00 0.00 78 1009.6
20260509213941 71 338 0.0 2.0 0.00 0.00 0.00 77 1009.7
20260509213438 71 337 0.0 2.0 0.00 0.00 0.00 79 1009.5
20260509212939 71 336 0.0 2.0 0.00 0.00 0.00 79 1009.6
20260509212449 71 336 0.0 2.0 0.00 0.00 0.00 79 1009.6
20260509211438 71 334 0.0 2.0 0.00 0.00 0.00 80 1009.7
20260509211020 70 333 0.0 3.0 0.00 0.00 0.00 80 1009.8
20260509205936 70 334 0.0 2.0 0.00 0.00 0.00 79 1009.9
20260509205430 71 334 0.0 2.0 0.00 0.00 0.00 79 1009.9
20260509204929 71 333 0.0 2.0 0.00 0.00 0.00 79 1010.0
20260509204433 71 350 0.0 2.0 0.00 0.00 0.00 79 1010.0
20260509203427 71 355 1.0 2.0 0.00 0.00 0.00 80 1010.2
20260509202920 71 0 1.0 2.0 0.00 0.00 0.00 80 1010.3
20260509202413 71 355 0.0 2.0 0.00 0.00 0.00 82 1010.4
20260509201414 70 351 1.0 3.0 0.00 0.00 0.00 83 1010.5
20260509200906 70 348 1.0 3.0 0.00 0.00 0.00 82 1010.5
20260509200411 70 348 1.0 2.0 0.00 0.00 0.00 82 1010.6
20260509195910 70 348 0.0 2.0 0.00 0.00 0.00 84 1010.8
20260509195412 69 0 0.0 2.0 0.00 0.00 0.00 85 1010.9
20260509194914 69 340 0.0 2.0 0.00 0.00 0.00 85 1011.0
20260509193914 68 184 0.0 3.0 0.00 0.00 0.00 89 1011.1
20260509192905 66 217 0.0 4.0 0.00 0.00 0.00 90 1011.2
20260509192404 66 216 0.0 4.0 0.00 0.00 0.00 89 1011.3
20260509191904 65 223 0.0 2.0 0.00 0.00 0.00 90 1011.3
20260509191405 65 223 0.0 2.0 0.00 0.00 0.00 89 1011.4
20260509190404 65 191 0.0 2.0 0.00 0.00 0.00 90 1011.6
20260509185902 64 189 0.0 3.0 0.00 0.00 0.00 90 1011.6
20260509185406 64 86 0.0 3.0 0.00 0.00 0.00 90 1011.8
20260509184355 64 87 0.0 6.0 0.00 0.00 0.00 92 1011.9
20260509183856 64 31 0.0 1.0 0.00 0.00 0.00 92 1012.0
20260509183350 64 30 0.0 1.0 0.00 0.00 0.00 93 1012.1
20260509182352 63 32 0.0 1.0 0.00 0.00 0.00 93 1012.1
20260509181851 63 38 0.0 3.0 0.00 0.00 0.00 93 1012.2
20260509180849 62 40 0.0 1.0 0.00 0.00 0.00 93 1012.3
20260509180347 62 41 0.0 1.0 0.00 0.00 0.00 92 1012.2
20260509175349 62 42 0.0 2.0 0.00 0.00 0.00 91 1012.3
20260509174844 62 329 0.0 2.0 0.00 0.00 0.00 91 1012.3
20260509174344 62 5 0.0 2.0 0.00 0.00 0.00 89 1012.3
20260509173844 63 20 0.0 2.0 0.00 0.00 0.00 89 1012.4
20260509172846 64 345 1.0 2.0 0.00 0.00 0.00 86 1012.4
20260509172344 65 0 1.0 2.0 0.00 0.00 0.00 84 1012.5
20260509171846 66 5 1.0 2.0 0.00 0.00 0.00 82 1012.4
20260509171346 66 5 1.0 2.0 0.00 0.00 0.00 81 1012.2
20260509170847 66 20 1.0 2.0 0.00 0.00 0.00 81 1012.1
20260509165843 66 111 1.0 3.0 0.00 0.00 0.00 79 1012.4
20260509165338 67 64 0.0 2.0 0.00 0.00 0.00 80 1012.3
20260509164842 67 74 0.0 2.0 0.00 0.00 0.00 78 1012.4
20260509164340 67 82 0.0 0.0 0.00 0.00 0.00 77 1012.5
20260509163842 68 82 0.0 0.0 0.00 0.00 0.00 77 1012.5
20260509163340 69 82 0.0 0.0 0.00 0.00 0.00 76 1012.5
20260509162842 69 82 0.0 0.0 0.00 0.00 0.00 75 1012.2
20260509161836 70 82 0.0 1.0 0.00 0.00 0.00 74 1012.2
20260509161337 70 82 0.0 1.0 0.00 0.00 0.00 72 1012.2
20260509160838 70 82 0.0 1.0 0.00 0.00 0.00 71 1012.2
20260509160336 71 83 0.0 1.0 0.00 0.00 0.00 73 1012.3
20260509155833 70 86 0.0 1.0 0.00 0.00 0.00 73 1012.5
20260509155335 70 88 0.0 1.0 0.00 0.00 0.00 71 1012.7
20260509154835 71 98 0.0 1.0 0.00 0.00 0.00 70 1012.9
20260509154330 71 98 0.0 1.0 0.00 0.00 0.00 68 1013.0